Tracking 32140 objects as of 14-Nov-2025
HD Live streaming from Space Station
objects crossing your sky now

STARLINK-33973

Track STARLINK-33973 now!
10-day predictions
STARLINK-33973 is classified as:


NORAD ID: 63894
Int'l Code: 2025-095E
Perigee: 489.4 km
Apogee: 491.4 km
Inclination: 43.0 °
Period: 94.3 minutes
Semi major axis: 6861 km
RCS: Unknown
Launch date: May 10, 2025
Source: United States (US)
Launch site: AIR FORCE EASTERN TEST RANGE (AFETR)
Your satellite tracking list
Your tracking list is empty




NASA's NSSDC Master Catalog

Two Line Element Set (TLE):
1 63894U 25095E   25317.83335647  .00083248  00000-0  30068-2 0  9992
2 63894  43.0018 110.0968 0001410 277.7060  91.0873 15.27513867  5860
Source of the keplerian elements: AFSPC